Location: Kouchibouguac National Park
(46.8081°N, 64.9088°W)
Time: 08:55:28
(UTC-03:00)

Amateur Radio Satellites - All Passes

Search period start: 30 August 2015 08:25
Search period end: 31 August 2015 08:25
Location: Kouchibouguac National Park, 46.8081°N, 64.9088°W

Satellite Date Start Highest point End Downlink Frequencies (MHz)
Time Altitude Azimuth
DOVE 4 30 Aug 08:35:53 08:39:36 20° 88° (E) 08:43:29 437.250
Cubesat XI-IV 30 Aug 08:39:06 08:44:08 42° 292° (WNW) 08:49:06 437.490
Cosmos 2504 30 Aug 08:44:01 08:45:23 11° 43° (NE) 08:47:18 435.465 / 435.565
CANX-2 30 Aug 08:49:33 08:52:02 15° 88° (E) 08:54:39 2200.000
M-CUBED/EXP-1 PRIME 30 Aug 08:52:27 08:53:48 11° 51° (NE) 08:55:20 437.505
PCSat 30 Aug 09:00:47 09:02:14 11° 18° (NNE) 09:03:47 145.827
Cosmos 2491 30 Aug 09:03:21 09:10:58 37° 85° (E) 09:18:45 435.465 / 435.565
BRITE-PL 30 Aug 09:10:30 09:15:56 90° 314° (NW) 09:21:37 437.365/2234.400
SEEDS 30 Aug 09:14:08 09:17:11 20° 91° (E) 09:20:20 437.485
SO-50 30 Aug 09:15:50 09:19:51 24° 34° (NE) 09:23:53 436.795
STRAND 1 30 Aug 09:16:35 09:18:18 11° 276° (W) 09:19:42 437.568
ANTELSAT 30 Aug 09:17:46 09:19:08 11° 57° (ENE) 09:20:44 437.575/2403.000
CUTE-I 30 Aug 09:25:36 09:29:24 20° 301° (WNW) 09:33:04 437.470
HO-68 30 Aug 09:35:14 09:42:09 48° 99° (E) 09:49:04 435.675
CINEMA 3 30 Aug 09:35:20 09:39:42 30° 93° (E) 09:44:03 145.822/145.860
CUSAT 1 30 Aug 09:38:26 09:42:10 15° 53° (NE) 09:46:31 437.405
COMPASS 1 30 Aug 09:38:56 09:42:32 28° 94° (E) 09:46:08 437.405
CUBEBUG 2 30 Aug 09:39:51 09:42:27 15° 86° (E) 09:45:12 437.445
VERMONT LUNAR 30 Aug 09:43:24 09:44:12 11° 203° (SSW) 09:44:57 437.305
PHONESAT 2.4 30 Aug 09:48:14 09:51:12 28° 182° (S) 09:54:10 2401.200-2431.200
GOMX 1 30 Aug 09:49:30 09:54:53 68° 287° (WNW) 10:00:20 467.674
ZACube-1 30 Aug 09:50:05 09:50:37 10° 84° (E) 09:51:26 437.345
AAUSAT CUBESAT 2 30 Aug 09:50:47 09:54:30 31° 95° (E) 09:58:13 437.432
UWE-3 30 Aug 09:50:56 09:53:27 15° 87° (E) 09:56:07 435.000/436.395/437.385
DANDE 30 Aug 09:52:46 09:55:31 13° 53° (NE) 09:58:53 436.750
FUNcube-1 30 Aug 09:55:33 09:57:00 12° 85° (E) 09:58:41 145.935
AIST 1 30 Aug 09:56:02 09:59:54 32° 287° (WNW) 10:03:45
POLYITAN 1 30 Aug 10:04:00 10:05:03 11° 58° (ENE) 10:06:19 437.675
UNISAT 6 30 Aug 10:05:38 10:09:38 29° 66° (ENE) 10:13:45 437.425
POPSAT HIP 1 30 Aug 10:07:06 10:08:24 11° 59° (ENE) 10:09:54 437.405
YUBILEINY 30 Aug 10:09:11 10:17:37 50° 271° (W) 10:25:54 435.215
DUCHIFAT 1 30 Aug 10:09:16 10:10:36 11° 59° (ENE) 10:12:07 145.980
CUTE 1.7 + AOD 2 30 Aug 10:10:24 10:14:40 85° 284° (WNW) 10:18:53 437.475
DOVE 4 30 Aug 10:12:33 10:17:49 65° 287° (WNW) 10:23:05 437.250
ISS 30 Aug 10:19:06 10:21:59 30° 142° (SE) 10:24:53 145.825
AUBIESAT-1 30 Aug 10:19:46 10:24:22 51° 66° (ENE) 10:28:54 437.475
QB50P2 30 Aug 10:22:05 10:24:42 17° 62° (ENE) 10:27:28 145.880/145.840
M-CUBED/EXP-1 PRIME 30 Aug 10:23:02 10:27:47 64° 67° (ENE) 10:32:29 437.505
CANX-2 30 Aug 10:24:12 10:28:21 55° 288° (WNW) 10:32:28 2200.000
NANOSAT C BR1 30 Aug 10:24:37 10:27:14 17° 62° (ENE) 10:30:00 145.865
BUGSAT 1 30 Aug 10:26:05 10:26:35 10° 58° (ENE) 10:27:18 437.445
DELFI C3 30 Aug 10:28:40 10:31:53 23° 93° (E) 10:35:10 145.870
Cosmos 2504 30 Aug 10:32:29 10:40:36 44° 70° (ENE) 10:48:24 435.465 / 435.565
TIGRISAT 30 Aug 10:34:21 10:38:52 51° 72° (ENE) 10:43:29 435.000
QB50P1 30 Aug 10:36:47 10:39:59 22° 65° (ENE) 10:43:19 145.935-145.965
PCSat 30 Aug 10:42:41 10:47:29 31° 43° (NE) 10:52:20 145.827
Oscar 11 30 Aug 10:44:19 10:48:33 53° 99° (E) 10:52:47 145.826/435.025
HUMSAT D 30 Aug 10:48:53 10:51:33 16° 89° (E) 10:54:20 437.325/437.525
SEEDS 30 Aug 10:49:13 10:53:12 41° 290° (WNW) 10:57:07 437.485
ANTELSAT 30 Aug 10:50:28 10:55:09 76° 76° (ENE) 10:59:54 437.575/2403.000
BRITE-PL 30 Aug 10:50:28 10:53:51 17° 300° (WNW) 10:57:08 437.365/2234.400
SO-50 30 Aug 10:55:59 11:00:58 77° 235° (SW) 11:05:49 436.795
Cosmos 2491 30 Aug 10:59:03 11:07:35 56° 287° (WNW) 11:16:07 435.465 / 435.565
CINEMA 3 30 Aug 11:12:17 11:16:59 39° 291° (WNW) 11:21:32 145.822/145.860
COMPASS 1 30 Aug 11:14:33 11:18:10 29° 292° (WNW) 11:21:44 437.405
CUBEBUG 2 30 Aug 11:14:58 11:19:43 69° 286° (WNW) 11:24:18 437.445
VELOX 1 30 Aug 11:18:13 11:20:05 13° 87° (E) 11:22:10 145.980
CUSAT 1 30 Aug 11:18:56 11:26:15 58° 74° (ENE) 11:34:24 437.405
50 SAT 30 Aug 11:21:24 11:23:30 14° 89° (E) 11:25:44 437.505
HO-68 30 Aug 11:23:11 11:29:49 40° 298° (WNW) 11:36:22 435.675
ZACube-1 30 Aug 11:23:11 11:27:47 90° 103° (ESE) 11:32:14 437.345
UWE-3 30 Aug 11:25:54 11:30:33 67° 286° (WNW) 11:35:02 435.000/436.395/437.385
PHONESAT 2.4 30 Aug 11:26:09 11:28:33 18° 198° (SSW) 11:30:55 2401.200-2431.200
AAUSAT CUBESAT 2 30 Aug 11:26:31 11:30:00 26° 293° (WNW) 11:33:24 437.432
FUNcube-1 30 Aug 11:29:28 11:34:02 81° 284° (WNW) 11:38:27 145.935
GOMX 1 30 Aug 11:29:54 11:32:09 12° 304° (WNW) 11:34:11 467.674
DANDE 30 Aug 11:33:14 11:40:10 53° 73° (ENE) 11:48:20 436.750
POLYITAN 1 30 Aug 11:36:01 11:40:17 85° 76° (ENE) 11:44:38 437.675
POPSAT HIP 1 30 Aug 11:39:23 11:43:39 89° 50° (NE) 11:47:58 437.405
DUCHIFAT 1 30 Aug 11:41:32 11:45:46 89° 256° (WSW) 11:50:04 145.980
UNISAT 6 30 Aug 11:41:59 11:46:19 36° 264° (W) 11:50:40 437.425
CUTE 1.7 + AOD 2 30 Aug 11:48:56 11:49:55 11° 301° (WNW) 11:50:41 437.475
DOVE 4 30 Aug 11:52:48 11:54:41 12° 304° (NW) 11:56:19 437.250
ISS 30 Aug 11:55:03 11:58:15 56° 340° (NNW) 12:01:28 145.825
AUBIESAT-1 30 Aug 11:55:33 11:59:17 22° 263° (W) 12:02:53 437.475
QB50P2 30 Aug 11:55:59 12:00:11 59° 259° (W) 12:04:26 145.880/145.840
BUGSAT 1 30 Aug 11:57:19 12:01:23 86° 76° (ENE) 12:05:33 437.445
NANOSAT C BR1 30 Aug 11:58:28 12:02:39 58° 259° (W) 12:06:53 145.865
M-CUBED/EXP-1 PRIME 30 Aug 11:59:33 12:02:56 18° 265° (W) 12:06:09 437.505
DELFI C3 30 Aug 12:03:25 12:07:00 32° 291° (WNW) 12:10:33 145.870
ESTCUBE 1 30 Aug 12:04:22 12:08:14 28° 94° (E) 12:12:09 437.505/2401.250
DX 1 30 Aug 12:09:16 12:13:38 62° 102° (ESE) 12:17:58 434.975-435.025
QB50P1 30 Aug 12:11:35 12:15:37 41° 262° (W) 12:19:42 145.935-145.965
TIGRISAT 30 Aug 12:12:26 12:15:57 20° 270° (W) 12:19:23 435.000
Oscar 11 30 Aug 12:21:24 12:24:23 18° 297° (WNW) 12:27:14 145.826/435.025
HUMSAT D 30 Aug 12:23:29 12:27:39 52° 288° (WNW) 12:31:44 437.325/437.525
AISAT 30 Aug 12:23:58 12:28:25 59° 101° (E) 12:32:51 437.250
UKube-1 30 Aug 12:24:45 12:29:07 81° 104° (ESE) 12:33:28 .
Cosmos 2504 30 Aug 12:24:50 12:32:56 47° 272° (W) 12:40:32 435.465 / 435.565
PCSat 30 Aug 12:25:54 12:31:11 53° 244° (WSW) 12:36:26 145.827
ANTELSAT 30 Aug 12:30:03 12:32:33 14° 274° (W) 12:34:51 437.575/2403.000
CUBEBUG 1 30 Aug 12:30:16 12:34:28 42° 98° (E) 12:38:41 437.445
SPROUT 30 Aug 12:33:50 12:36:25 16° 89° (E) 12:39:10 437.525
SO-50 30 Aug 12:39:04 12:40:44 11° 252° (WSW) 12:42:08 436.795
Oscar 19 30 Aug 12:44:18 12:48:26 25° 63° (ENE) 12:52:41 437.125/150
VELOX 1 30 Aug 12:52:45 12:57:14 75° 287° (WNW) 13:01:42 145.980
50 SAT 30 Aug 12:54:35 12:58:23 50° 287° (WNW) 13:02:05 437.505
CUBEBUG 2 30 Aug 12:54:42 12:55:33 10° 304° (NW) 12:56:09 437.445
GONETS M04 30 Aug 12:59:38 13:06:04 23° 57° (ENE) 13:12:49
ZACube-1 30 Aug 13:01:26 13:03:28 13° 301° (WNW) 13:05:17 437.345
CUSAT 1 30 Aug 13:01:51 13:08:39 37° 270° (W) 13:15:53 437.405
Cosmos 2491 30 Aug 13:02:56 13:07:04 13° 313° (NW) 13:10:42 435.465 / 435.565
FUNcube-1 30 Aug 13:08:07 13:09:37 11° 302° (WNW) 13:10:54 145.935
Gurwin Techsat 1B 30 Aug 13:12:30 13:15:38 17° 58° (ENE) 13:18:58 435.225
HO-68 30 Aug 13:15:01 13:15:46 10° 320° (NW) 13:16:10 435.675
POLYITAN 1 30 Aug 13:16:10 13:16:54 10° 275° (W) 13:17:22 437.675
DANDE 30 Aug 13:16:34 13:23:15 40° 268° (W) 13:30:47 436.750
JAS-2 30 Aug 13:26:08 13:31:10 20° 52° (NE) 13:36:28 435.910
ISS 30 Aug 13:32:02 13:35:02 33° 0° (N) 13:38:02 145.825
AO-7 30 Aug 13:38:29 13:42:53 16° 40° (NE) 13:47:37 29.400- 29.500
ITAMSAT 1 30 Aug 13:39:39 13:43:32 22° 61° (ENE) 13:47:31 435.822/435.867
ESTCUBE 1 30 Aug 13:41:05 13:45:08 33° 292° (WNW) 13:49:09 437.505/2401.250
TISAT 1 30 Aug 13:43:43 13:47:51 46° 99° (E) 13:51:59 437.305
DX 1 30 Aug 13:46:38 13:49:27 17° 299° (WNW) 13:52:09 434.975-435.025
AISAT 30 Aug 14:01:33 14:04:36 18° 298° (WNW) 14:07:32 437.250
UKube-1 30 Aug 14:02:35 14:04:41 13° 301° (WNW) 14:06:37 .
CUBEBUG 1 30 Aug 14:07:06 14:10:36 23° 295° (WNW) 14:14:00 437.445
SPROUT 30 Aug 14:08:37 14:12:54 57° 288° (WNW) 14:17:09 437.525
SWISSCUBE 30 Aug 14:10:32 14:13:48 19° 90° (E) 14:17:11 437.505
Oscar 19 30 Aug 14:22:31 14:27:32 50° 261° (W) 14:32:36 437.125/150
VELOX 1 30 Aug 14:32:14 14:33:03 10° 303° (WNW) 14:33:40 145.980
ITUPSAT 1 30 Aug 14:47:27 14:51:51 37° 97° (E) 14:56:16 437.325
Gurwin Techsat 1B 30 Aug 14:49:41 14:55:00 86° 254° (WSW) 15:00:22 435.225
GONETS M04 30 Aug 14:55:34 15:04:25 88° 80° (E) 15:13:17
Cosmos 2499 30 Aug 15:00:14 15:07:50 32° 63° (ENE) 15:15:13 435.465 / 435.565
JAS-2 30 Aug 15:07:23 15:15:01 72° 71° (ENE) 15:22:53 435.910
ISS 30 Aug 15:08:35 15:11:48 58° 20° (NNE) 15:15:01 145.825
ITAMSAT 1 30 Aug 15:17:34 15:22:40 58° 259° (WSW) 15:27:48 435.822/435.867
TISAT 1 30 Aug 15:20:09 15:23:20 20° 296° (WNW) 15:26:24 437.305
BEESAT 30 Aug 15:21:34 15:26:21 79° 104° (ESE) 15:31:07 436.000
KKS-1 30 Aug 15:23:20 15:25:57 16° 89° (E) 15:28:44 437.445
AO-7 30 Aug 15:26:01 15:34:01 54° 63° (ENE) 15:42:06 29.400- 29.500
HORYU 2 30 Aug 15:34:47 15:38:43 31° 67° (ENE) 15:42:43 437.375
RS-15 30 Aug 15:42:18 15:50:10 25° 102° (ESE) 15:58:43 29.354- 29.394
SWISSCUBE 30 Aug 15:47:23 15:52:03 56° 289° (WNW) 15:56:42 437.505
BEESAT 3 30 Aug 16:14:44 16:18:44 58° 123° (ESE) 16:22:46 437.485
BEESAT 2 30 Aug 16:24:23 16:28:24 56° 122° (ESE) 16:32:27 435.950
ITUPSAT 1 30 Aug 16:25:31 16:29:39 29° 295° (WNW) 16:33:42 437.325
Gurwin Techsat 1B 30 Aug 16:33:35 16:35:54 12° 276° (W) 16:37:56 435.225
STARS 30 Aug 16:43:55 16:48:21 59° 101° (E) 16:52:44 437.465
ISS 30 Aug 16:45:12 16:48:04 28° 218° (SW) 16:50:54 145.825
Cubesat XI-IV 30 Aug 16:48:36 16:50:04 11° 53° (NE) 16:51:47 437.490
AIST 2 30 Aug 16:50:32 16:53:55 24° 115° (ESE) 16:57:23 435.215
Cosmos 2499 30 Aug 16:53:06 17:01:48 67° 266° (W) 17:09:53 435.465 / 435.565
GONETS M04 30 Aug 16:53:53 17:00:15 22° 281° (WNW) 17:06:18
JAS-2 30 Aug 16:54:09 17:00:43 29° 272° (W) 17:07:14 435.910
KKS-1 30 Aug 16:58:35 17:03:03 62° 288° (WNW) 17:07:28 437.445
MOZHAYETS 4 30 Aug 16:59:54 17:03:33 24° 92° (E) 17:07:17
BEESAT 30 Aug 17:00:49 17:03:38 15° 301° (WNW) 17:06:17 436.000
HORYU 2 30 Aug 17:11:18 17:15:21 31° 265° (W) 17:19:21 437.375
AO-7 30 Aug 17:19:20 17:27:08 40° 263° (W) 17:34:49 29.400- 29.500
CUTE-I 30 Aug 17:30:54 17:35:02 24° 62° (ENE) 17:39:17 437.470
RS-15 30 Aug 17:50:06 18:01:04 87° 125° (SE) 18:12:35 29.354- 29.394
BEESAT 3 30 Aug 17:53:44 17:56:59 22° 322° (NW) 18:00:12 437.485
BEESAT 2 30 Aug 18:03:24 18:06:44 23° 322° (NW) 18:10:03 435.950
STARS 30 Aug 18:21:22 18:24:23 18° 298° (WNW) 18:27:17 437.465
Cubesat XI-IV 30 Aug 18:24:00 18:29:15 64° 72° (ENE) 18:34:33 437.490
HO-68 30 Aug 18:24:50 18:27:16 12° 43° (NE) 18:30:02 435.675
AIST 2 30 Aug 18:28:10 18:32:17 45° 313° (NW) 18:36:23 435.215
MOZHAYETS 4 30 Aug 18:36:40 18:40:58 40° 290° (WNW) 18:45:12
BRITE-PL 30 Aug 18:48:12 18:51:08 18° 61° (ENE) 18:54:21 437.365/2234.400
Cosmos 2499 30 Aug 18:48:58 18:53:19 14° 287° (WNW) 18:57:02 435.465 / 435.565
CUBESAT XI-V 30 Aug 18:49:11 18:53:12 29° 94° (E) 18:57:17 437.345
Cosmos 2491 30 Aug 19:09:25 19:15:46 22° 56° (ENE) 19:22:25 435.465 / 435.565
CUTE-I 30 Aug 19:09:35 19:14:48 55° 260° (W) 19:20:02 437.470
GOMX 1 30 Aug 19:23:50 19:27:27 24° 63° (ENE) 19:31:21 467.674
CUTE 1.7 + AOD 2 30 Aug 19:32:57 19:34:36 12° 60° (ENE) 19:36:26 437.475
STRAND 1 30 Aug 19:41:05 19:45:19 27° 93° (E) 19:49:38 437.568
DOVE 4 30 Aug 19:44:25 19:48:06 24° 63° (ENE) 19:52:04 437.250
CANX-2 30 Aug 19:45:23 19:48:13 18° 63° (ENE) 19:51:09 2200.000
PRISM 30 Aug 19:53:54 19:57:04 22° 93° (E) 20:00:19 437.425
AIST 1 30 Aug 19:59:23 20:03:44 80° 81° (E) 20:08:05
RS-15 30 Aug 20:04:35 20:14:59 41° 334° (NNW) 20:25:46 29.354- 29.394
Cubesat XI-IV 30 Aug 20:06:00 20:09:53 20° 271° (W) 20:13:37 437.490
HO-68 30 Aug 20:06:41 20:13:27 48° 64° (ENE) 20:20:19 435.675
SEEDS 30 Aug 20:08:59 20:12:12 22° 66° (ENE) 20:15:30 437.485
AIST 2 30 Aug 20:10:12 20:11:54 12° 335° (NNW) 20:13:30 435.215
O/OREOS (USA 219) 30 Aug 20:10:52 20:15:23 74° 113° (ESE) 20:19:58 437.305
BRITE-PL 30 Aug 20:24:54 20:29:12 58° 261° (W) 20:33:52 437.365/2234.400
CUBESAT XI-V 30 Aug 20:26:29 20:30:42 34° 292° (WNW) 20:34:51 437.345
COMPASS 1 30 Aug 20:32:47 20:36:25 29° 68° (ENE) 20:40:05 437.405
CINEMA 3 30 Aug 20:39:36 20:43:52 36° 68° (ENE) 20:48:22 145.822/145.860
CUBEBUG 2 30 Aug 20:40:38 20:43:52 19° 62° (ENE) 20:47:16 437.445
AAUSAT CUBESAT 2 30 Aug 20:44:08 20:47:51 32° 69° (ENE) 20:51:37 437.432
ZACube-1 30 Aug 20:47:57 20:50:12 14° 60° (ENE) 20:52:38 437.345
UWE-3 30 Aug 20:50:38 20:53:47 19° 62° (ENE) 20:57:05 435.000/436.395/437.385
FUNcube-1 30 Aug 20:53:39 20:56:12 15° 61° (ENE) 20:58:54 145.935
GOMX 1 30 Aug 21:01:00 21:05:19 44° 263° (W) 21:09:58 467.674
Cosmos 2491 30 Aug 21:05:21 21:14:09 87° 79° (E) 21:22:58 435.465 / 435.565
CUTE 1.7 + AOD 2 30 Aug 21:05:38 21:09:56 84° 257° (WSW) 21:14:15 437.475
YUBILEINY 30 Aug 21:17:00 21:25:02 44° 87° (E) 21:33:14 435.215
DELFI C3 30 Aug 21:18:35 21:21:45 23° 66° (ENE) 21:24:58 145.870
CANX-2 30 Aug 21:19:34 21:23:47 54° 261° (W) 21:28:00 2200.000
STRAND 1 30 Aug 21:19:53 21:24:44 44° 292° (WNW) 21:29:33 437.568
DOVE 4 30 Aug 21:21:08 21:25:35 46° 263° (W) 21:30:19 437.250
PRISM 30 Aug 21:28:50 21:32:38 36° 291° (WNW) 21:36:24 437.425
DX 1 30 Aug 21:35:37 21:36:13 10° 57° (ENE) 21:37:01 434.975-435.025
AIST 1 30 Aug 21:39:51 21:40:47 10° 277° (W) 21:41:29
Oscar 11 30 Aug 21:41:35 21:45:52 60° 73° (ENE) 21:50:11 145.826/435.025
HUMSAT D 30 Aug 21:43:21 21:46:20 19° 64° (ENE) 21:49:25 437.325/437.525
SEEDS 30 Aug 21:43:43 21:47:46 41° 262° (W) 21:51:48 437.485
UKube-1 30 Aug 21:49:01 21:50:51 13° 59° (ENE) 21:52:51 .
AISAT 30 Aug 21:52:17 21:52:51 10° 57° (ENE) 21:53:38 437.250
O/OREOS (USA 219) 30 Aug 21:52:19 21:55:24 17° 314° (NW) 21:58:25 437.305
HO-68 30 Aug 21:54:43 22:01:22 39° 264° (W) 22:07:59 435.675
50 SAT 30 Aug 22:08:03 22:10:03 14° 62° (ENE) 22:12:12 437.505
COMPASS 1 30 Aug 22:08:20 22:12:03 29° 265° (W) 22:15:44 437.405
CUBEBUG 2 30 Aug 22:15:32 22:20:07 59° 260° (W) 22:24:51 437.445
CINEMA 3 30 Aug 22:16:58 22:21:08 30° 267° (W) 22:25:23 145.822/145.860
VELOX 1 30 Aug 22:18:21 22:21:12 18° 62° (ENE) 22:24:11 145.980
AAUSAT CUBESAT 2 30 Aug 22:19:55 22:23:29 26° 266° (W) 22:27:00 437.432
RS-15 30 Aug 22:21:21 22:31:17 32° 7° (N) 22:41:40 29.354- 29.394
ZACube-1 30 Aug 22:21:23 22:25:57 83° 257° (WSW) 22:30:35 437.345
UWE-3 30 Aug 22:25:20 22:29:52 60° 260° (W) 22:34:32 435.000/436.395/437.385
FUNcube-1 30 Aug 22:27:25 22:31:58 75° 258° (WSW) 22:36:35 145.935
ANTELSAT 30 Aug 22:41:27 22:43:33 13° 86° (E) 22:45:50 437.575/2403.000
DELFI C3 30 Aug 22:52:53 22:56:38 35° 263° (W) 23:00:23 145.870
BEESAT 3 30 Aug 22:53:25 22:56:02 17° 33° (NNE) 22:58:43 437.485
BEESAT 2 30 Aug 23:03:33 23:06:10 16° 32° (NNE) 23:08:50 435.950
Cosmos 2491 30 Aug 23:03:40 23:10:02 22° 281° (WNW) 23:16:02 435.465 / 435.565
Cosmos 2504 30 Aug 23:06:37 23:13:21 30° 82° (E) 23:20:32 435.465 / 435.565
ESTCUBE 1 30 Aug 23:06:40 23:10:47 37° 69° (ENE) 23:14:56 437.505/2401.250
DX 1 30 Aug 23:07:26 23:11:46 78° 74° (ENE) 23:16:08 434.975-435.025
YUBILEINY 30 Aug 23:13:24 23:21:52 49° 289° (WNW) 23:30:20 435.215
HUMSAT D 30 Aug 23:17:29 23:21:43 52° 261° (W) 23:25:58 437.325/437.525
Oscar 11 30 Aug 23:19:51 23:22:30 15° 272° (W) 23:24:58 145.826/435.025
POLYITAN 1 30 Aug 23:20:35 23:22:02 12° 86° (E) 23:23:44 437.675
UKube-1 30 Aug 23:22:06 23:26:24 83° 256° (WSW) 23:30:45 .
POPSAT HIP 1 30 Aug 23:23:29 23:25:11 12° 87° (E) 23:27:06 437.405
AISAT 30 Aug 23:24:18 23:28:42 76° 73° (ENE) 23:33:08 437.250
DUCHIFAT 1 30 Aug 23:25:07 23:26:48 12° 87° (E) 23:28:41 145.980
CUBEBUG 1 30 Aug 23:29:03 23:33:12 50° 72° (ENE) 23:37:26 437.445
UNISAT 6 30 Aug 23:30:49 23:35:09 40° 96° (E) 23:39:24 437.425
SPROUT 30 Aug 23:30:51 23:33:47 19° 63° (ENE) 23:36:51 437.525
AIST 2 30 Aug 23:31:50 23:33:01 11° 23° (NNE) 23:34:17 435.215
AUBIESAT-1 30 Aug 23:33:10 23:36:12 21° 97° (E) 23:39:07 437.475
M-CUBED/EXP-1 PRIME 30 Aug 23:36:57 23:40:27 27° 99° (E) 23:43:44 437.505
BUGSAT 1 30 Aug 23:39:01 23:39:54 11° 86° (E) 23:41:03 437.445
QB50P2 30 Aug 23:39:06 23:42:06 19° 91° (E) 23:45:13 145.880/145.840
50 SAT 30 Aug 23:40:12 23:44:08 62° 259° (W) 23:48:05 437.505
NANOSAT C BR1 30 Aug 23:41:08 23:44:08 19° 91° (E) 23:47:13 145.865
VELOX 1 30 Aug 23:53:00 23:57:21 58° 260° (W) 00:01:44 145.980
QB50P1 30 Aug 23:53:51 23:57:26 25° 94° (E) 00:01:02 145.935-145.965
TIGRISAT 30 Aug 23:59:46 00:04:24 75° 102° (ESE) 00:08:54 435.000
ANTELSAT 31 Aug 00:16:21 00:20:59 74° 286° (WNW) 00:25:28 437.575/2403.000
CUSAT 1 31 Aug 00:30:07 00:33:43 35° 90° (E) 00:38:28 437.405
BEESAT 3 31 Aug 00:30:29 00:34:34 90° 8° (N) 00:38:34 437.485
RS-15 31 Aug 00:35:32 00:46:57 55° 39° (NE) 00:58:53 29.354- 29.394
TISAT 1 31 Aug 00:38:21 00:42:25 50° 71° (ENE) 00:46:33 437.305
BEESAT 2 31 Aug 00:40:44 00:44:50 87° 52° (NE) 00:48:51 435.950
ESTCUBE 1 31 Aug 00:44:01 00:47:46 25° 267° (W) 00:51:28 437.505/2401.250
DX 1 31 Aug 00:47:02 00:48:39 12° 273° (W) 00:50:02 434.975-435.025
DANDE 31 Aug 00:49:50 00:52:58 31° 89° (E) 00:57:02 436.750
POLYITAN 1 31 Aug 00:54:13 00:58:34 76° 284° (WNW) 01:02:51 437.675
BEESAT 31 Aug 00:55:06 00:58:11 18° 61° (ENE) 01:01:24 436.000
Cosmos 2504 31 Aug 00:56:49 01:04:58 67° 283° (WNW) 01:13:33 435.465 / 435.565
POPSAT HIP 1 31 Aug 00:57:19 01:01:38 72° 286° (WNW) 01:05:54 437.405
DUCHIFAT 1 31 Aug 00:58:53 01:03:10 72° 286° (WNW) 01:07:26 145.980
AISAT 31 Aug 01:03:59 01:05:53 12° 273° (W) 01:07:36 437.250
SPROUT 31 Aug 01:05:20 01:09:31 51° 261° (W) 01:13:45 437.525
CUBEBUG 1 31 Aug 01:06:54 01:09:54 18° 270° (W) 01:12:48 437.445
AUBIESAT-1 31 Aug 01:07:20 01:11:06 36° 297° (WNW) 01:14:34 437.475
UNISAT 6 31 Aug 01:07:55 01:11:45 25° 295° (WNW) 01:15:25 437.425
AIST 2 31 Aug 01:08:44 01:12:43 41° 45° (NE) 01:16:40 435.215
M-CUBED/EXP-1 PRIME 31 Aug 01:11:37 01:15:15 29° 299° (WNW) 01:18:34 437.505
BUGSAT 1 31 Aug 01:11:44 01:16:00 82° 285° (WNW) 01:20:16 437.445
QB50P2 31 Aug 01:14:07 01:18:16 47° 289° (WNW) 01:22:23 145.880/145.840
SO-50 31 Aug 01:14:17 01:17:30 19° 112° (ESE) 01:20:56 436.795
NANOSAT C BR1 31 Aug 01:16:05 01:20:14 47° 289° (WNW) 01:24:20 145.865
YUBILEINY 31 Aug 01:18:38 01:21:41 12° 317° (NW) 01:24:11 435.215
SWISSCUBE 31 Aug 01:19:37 01:23:44 30° 66° (ENE) 01:27:55 437.505
QB50P1 31 Aug 01:29:26 01:33:21 34° 292° (WNW) 01:37:13 145.935-145.965
PCSat 31 Aug 01:30:36 01:32:38 12° 104° (ESE) 01:34:59 145.827
TIGRISAT 31 Aug 01:37:52 01:40:35 15° 300° (WNW) 01:43:06 435.000
ANTELSAT 31 Aug 01:55:52 01:56:58 11° 304° (WNW) 01:57:49 437.575/2403.000
ITUPSAT 1 31 Aug 01:56:53 02:01:34 59° 72° (ENE) 02:06:18 437.325
GONETS M04 31 Aug 02:06:47 02:12:35 21° 78° (ENE) 02:18:45
BEESAT 3 31 Aug 02:11:14 02:11:52 10° 250° (WSW) 02:12:17 437.485
STARS 31 Aug 02:11:32 02:12:00 10° 57° (ENE) 02:12:42 437.465
CUSAT 1 31 Aug 02:12:58 02:16:31 25° 299° (WNW) 02:20:53 437.405
TISAT 1 31 Aug 02:15:41 02:18:31 17° 270° (W) 02:21:14 437.305
BEESAT 2 31 Aug 02:21:08 02:22:15 11° 250° (WSW) 02:23:10 435.950
KKS-1 31 Aug 02:24:08 02:27:26 21° 64° (ENE) 02:30:53 437.445
BEESAT 31 Aug 02:30:49 02:35:34 67° 259° (WSW) 02:40:20 436.000
Oscar 19 31 Aug 02:30:56 02:35:57 46° 98° (E) 02:40:57 437.125/150
DANDE 31 Aug 02:33:16 02:36:18 22° 300° (WNW) 02:39:58 436.750
AIST 2 31 Aug 02:47:36 02:51:08 26° 244° (WSW) 02:54:33 435.215
RS-15 31 Aug 02:48:18 02:59:49 60° 243° (WSW) 03:11:37 29.354- 29.394
BUGSAT 1 31 Aug 02:49:56 02:50:48 10° 302° (WNW) 02:51:28 437.445
SO-50 31 Aug 02:52:44 02:57:34 71° 310° (NW) 03:02:31 436.795
Cosmos 2504 31 Aug 02:54:01 02:59:16 17° 309° (NW) 03:04:14 435.465 / 435.565
SWISSCUBE 31 Aug 02:57:09 03:01:32 35° 264° (W) 03:05:54 437.505
Gurwin Techsat 1B 31 Aug 03:03:15 03:07:55 30° 94° (E) 03:12:36 435.225
PCSat 31 Aug 03:09:52 03:15:17 80° 122° (ESE) 03:20:45 145.827
ITAMSAT 1 31 Aug 03:27:25 03:32:16 39° 97° (E) 03:37:09 435.822/435.867
AO-7 31 Aug 03:27:33 03:29:54 12° 80° (E) 03:32:56 29.400- 29.500
ITUPSAT 1 31 Aug 03:36:36 03:39:54 18° 270° (W) 03:43:04 437.325
Cosmos 2499 31 Aug 03:41:32 03:47:34 23° 78° (ENE) 03:54:07 435.465 / 435.565
STARS 31 Aug 03:43:18 03:47:42 75° 74° (ENE) 03:52:10 437.465
KKS-1 31 Aug 03:59:30 04:03:49 47° 261° (W) 04:08:09 437.445
GONETS M04 31 Aug 03:59:39 04:08:21 89° 283° (WNW) 04:17:09
JAS-2 31 Aug 04:00:03 04:07:01 50° 96° (E) 04:13:11 435.910
MOZHAYETS 4 31 Aug 04:04:28 04:08:32 32° 68° (ENE) 04:12:39
Oscar 19 31 Aug 04:10:43 04:15:06 27° 296° (WNW) 04:19:24 437.125/150
SO-50 31 Aug 04:35:32 04:39:01 19° 332° (NNW) 04:42:28 436.795
O/OREOS (USA 219) 31 Aug 04:39:01 04:43:06 30° 54° (NE) 04:47:12 437.305
Gurwin Techsat 1B 31 Aug 04:43:02 04:48:01 41° 293° (WNW) 04:52:57 435.225
PCSat 31 Aug 04:54:59 04:59:22 24° 323° (NW) 05:03:40 145.827
HORYU 2 31 Aug 04:59:03 05:03:15 39° 97° (E) 05:07:26 437.375
RS-15 31 Aug 05:04:21 05:10:07 14° 264° (W) 05:14:53 29.354- 29.394
ITAMSAT 1 31 Aug 05:07:09 05:11:42 31° 295° (WNW) 05:16:12 435.822/435.867
AO-7 31 Aug 05:16:35 05:24:47 61° 103° (ESE) 05:32:58 29.400- 29.500
STARS 31 Aug 05:22:44 05:24:46 13° 273° (W) 05:26:35 437.465
VERMONT LUNAR 31 Aug 05:24:12 05:26:11 16° 164° (SSE) 05:28:12 437.305
Cosmos 2499 31 Aug 05:31:10 05:39:41 87° 278° (W) 05:48:39 435.465 / 435.565
MOZHAYETS 4 31 Aug 05:41:37 05:45:45 31° 266° (W) 05:49:50
JAS-2 31 Aug 05:45:20 05:51:53 37° 298° (WNW) 05:57:42 435.910
CUBESAT XI-V 31 Aug 05:55:17 05:59:32 39° 69° (ENE) 06:03:50 437.345
GONETS M04 31 Aug 06:00:00 06:06:41 23° 303° (WNW) 06:13:07
O/OREOS (USA 219) 31 Aug 06:18:22 06:22:35 35° 253° (WSW) 06:26:44 437.305
HORYU 2 31 Aug 06:36:02 06:39:42 25° 295° (WNW) 06:43:17 437.375
Cubesat XI-IV 31 Aug 06:39:07 06:42:55 20° 90° (E) 06:46:50 437.490
PRISM 31 Aug 06:46:41 06:49:59 24° 66° (ENE) 06:53:21 437.425
STRAND 1 31 Aug 06:59:36 07:04:30 51° 70° (ENE) 07:09:28 437.568
VERMONT LUNAR 31 Aug 06:59:37 07:02:06 24° 181° (S) 07:04:36 437.305
AO-7 31 Aug 07:09:50 07:17:18 38° 304° (WNW) 07:24:37 29.400- 29.500
YUBILEINY 31 Aug 07:23:14 07:30:12 26° 59° (ENE) 07:37:24 435.215
CUTE-I 31 Aug 07:23:32 07:28:40 47° 99° (E) 07:33:48 437.470
PHONESAT 2.4 31 Aug 07:25:50 07:28:13 18° 162° (SSE) 07:30:36 2401.200-2431.200
Cosmos 2499 31 Aug 07:27:40 07:34:23 23° 303° (WNW) 07:40:59 435.465 / 435.565
CUBESAT XI-V 31 Aug 07:33:17 07:37:07 25° 267° (W) 07:40:53 437.345
SO-50 31 Aug 08:01:42 08:04:14 14° 20° (NNE) 08:06:51 436.795
